FREGAT DEB, 45635

Orbit data source: Space-Track

FREGAT DEB, 45635 is space debris in LEO originally from a launch on Mon, 18 Jul 2011 UTC launched from the Tyuratam Missile And Space Complex (TTMTR). Debris objects in space refer to the collection of defunct objects orbiting the Earth. Examples of debris include non-operational satellites, rocket bodies, and fragments generated from explosions, collisions, or faulty payload assembly.

Loading next visibility...
Identifier
45635, 2011-037AB
Orbit
LEO
Country
Flag of CISCIS
Related business
Manufacturer
Lavochkin
Mission
Spacecraft
Bus & Motor
Unknown
Mass
Unknown
Launch date (UTC)
2011-07-18 (14 years ago)
Launch vehicle
Unknown
Launch site
Tyuratam Missile And Space Complex (TTMTR)
Object type
Payload
Rocket body
Debris
Shape & HBR
Unknown
Radar Cross Section
Small (<0.1 m²)

Expand to show TLE details & history
Last TLE update: 2 days ago

TLE from 2 days ago
0 FREGAT DEB
1 45635U 11037AB  25260.03997531  .00169075  00000-0  27657-1 0  9993
2 45635  51.2562 252.0322 1042409 349.3585   8.6684 13.06011076224464
Epoch: 2025-09-17T00:57Z
TLE epoch observation values (Epoch: 2025-09-17T00:57:33.866Z)
Latitude
-0.00005°
Longitude
-118.58059°
Altitude
456.607 km
Speed
8.022 km/s
True Right ascension
16h 48m 07s
True Declination
0° 00' 00"
Sunlit
Object was in daylight at epoch
Visualization orbit readout
Latitude
Unknown
Longitude
Unknown
Altitude
Unknown
Speed
Unknown
Apparent Right ascension
Unknown
Apparent Declination
Unknown
Sunlit
N/A
Visualization observer readout
Local Sidereal Time
09:51:31
Azimuth
Unknown
Elevation
Unknown
Doppler factor
Unknown
Orbital elements
Apogee altitude
2,033.18 km
Perigee altitude
445.115 km
Semi-major axis
7,617.285 km
Eccentricity
0.10424
Inclination
51.2562°
RAAN
252.0322°
Arg. of periapsis
349.3585°
True anomaly
10.7326°
Mean anomaly
8.6684°
Eccentric anomaly
9.67182°
Mean motion
3.2647 °/min
Orbital period
110.27 mins
BSTAR
0.027657
Loading maneuver chart data...
Computing Atmospheric mass density...
Loading historical data...
Loading historical data...
Loading historical data...
Loading historical data...
Loading historical data...
Loading historical data...
Loading historical data...

Documentation

Showing up to 5 results
|